User: anonymous   Login
Location: Port Stanley
(42.6641°N, 81.2156°W)
Time: 03:07:45
(UTC-04:00)
Language:

ISS - Orbit

View from above orbital plane
View from above orbital plane
View from above satellite
View from above satellite

Ground track
Ground track

The orbit data is extracted from the following two-line orbital elements,

1 25544U 98067A   20194.81995093  .00016717  00000-0  10270-3 0  9074
2 25544  51.6414 221.6127 0001209 103.8862 256.2423 15.49517060 35981
Epoch (UTC): 12 July 2020 19:40:43
Eccentricity: 0.0001209
inclination: 51.6414°
perigee height: 417 km
apogee height: 419 km
right ascension of ascending node: 221.6127°
argument of perigee: 103.8862°
revolutions per day: 15.49517060
mean anomaly at epoch: 256.2423°
orbit number at epoch: 3598

The dashed part of the orbit path shows where the satellite is in the earth's shadow,  

DLR